TimeCST,TemperatureF,Dew PointF,Humidity,Sea Level PressureIn,VisibilityMPH,Wind Direction,Wind SpeedMPH,Gust SpeedMPH,PrecipitationIn,Events,Conditions,WindDirDegrees,DateUTC
12:53 AM,37.0,34.0,89,30.36,10.0,North,3.5,-,N/A,,Clear,360,2013-01-05 06:53:00
1:53 AM,36.0,32.0,86,30.36,10.0,Calm,Calm,-,N/A,,Clear,0,2013-01-05 07:53:00
2:53 AM,36.0,32.0,86,30.35,10.0,Calm,Calm,-,N/A,,Clear,0,2013-01-05 08:53:00
4:53 AM,35.1,32.0,89,30.35,10.0,Calm,Calm,-,N/A,,Clear,0,2013-01-05 10:53:00
5:53 AM,37.0,32.0,82,30.36,10.0,Calm,Calm,-,N/A,,Clear,0,2013-01-05 11:53:00
6:53 AM,39.9,30.0,68,30.37,10.0,NE,4.6,-,N/A,,Clear,50,2013-01-05 12:53:00
7:53 AM,42.1,30.9,65,30.38,10.0,ENE,4.6,-,N/A,,Clear,60,2013-01-05 13:53:00
8:53 AM,46.9,32.0,56,30.39,10.0,ENE,3.5,-,N/A,,Clear,70,2013-01-05 14:53:00
9:53 AM,51.1,30.0,44,30.38,10.0,ENE,4.6,-,N/A,,Clear,60,2013-01-05 15:53:00
10:53 AM,54.0,30.0,40,30.38,10.0,East,4.6,-,N/A,,Clear,80,2013-01-05 16:53:00
11:53 AM,53.1,32.0,45,30.33,10.0,Variable,3.5,-,N/A,,Clear,0,2013-01-05 17:53:00
12:53 PM,55.0,34.0,45,30.32,10.0,NNE,4.6,-,N/A,,Scattered Clouds,20,2013-01-05 18:53:00
1:53 PM,54.0,32.0,43,30.29,10.0,ENE,4.6,-,N/A,,Clear,70,2013-01-05 19:53:00
2:53 PM,54.0,34.0,47,30.31,10.0,Calm,Calm,-,N/A,,Clear,0,2013-01-05 20:53:00
3:53 PM,53.1,36.0,52,30.32,10.0,Calm,Calm,-,N/A,,Clear,0,2013-01-05 21:53:00
4:53 PM,51.1,39.0,63,30.33,10.0,NNW,3.5,-,N/A,,Scattered Clouds,330,2013-01-05 22:53:00
5:53 PM,48.9,41.0,74,30.32,10.0,ENE,3.5,-,N/A,,Mostly Cloudy,70,2013-01-05 23:53:00
6:53 PM,50.0,39.0,66,30.34,10.0,ESE,4.6,-,N/A,,Overcast,110,2013-01-06 00:53:00
7:53 PM,50.0,39.0,66,30.30,10.0,East,4.6,-,N/A,,Overcast,90,2013-01-06 01:53:00
8:53 PM,51.1,37.0,59,30.30,10.0,North,4.6,-,N/A,,Overcast,10,2013-01-06 02:53:00
9:53 PM,50.0,37.0,61,30.29,10.0,Calm,Calm,-,N/A,,Partly Cloudy,0,2013-01-06 03:53:00
10:53 PM,48.9,36.0,61,30.27,10.0,North,4.6,-,N/A,,Partly Cloudy,10,2013-01-06 04:53:00
11:53 PM,48.9,37.9,66,30.25,10.0,Calm,Calm,-,N/A,,Mostly Cloudy,0,2013-01-06 05:53:00